DNJO

Yakubu Gowon Airport

Airport
ICAO code
DNJO
IATA Code
JOS
Summary
ICAO Region
AFI
ICAO Territory
Location

Heipang, Plateau State

Serving
Jos
Elevation
4232 ft
Coordinates
9° 38' 17" N , 8° 52' 5" E
KCC
Metar
Observation
DNJO 310500Z 10006KT CAVOK 14/07 Q1017
Station
Jos
Date/Time
2023-01-31 05:00:00
Wind direction
100°
Wind speed
06 kts
Lowest cloud amount
clouds and visibility OK
Temperature
14°C
Dew point
7°C
Humidity
62%
QNH
1017 hPa
Weather condition
n/a

Yakubu Gowon Airport, also known as Jos Airport, is an airport serving Jos, the capital of the Plateau State of Nigeria.

Climatology

Tropical savanna climate (Köppen climate classification Aw

Runways

Designator Length Width Surface Rops
10/28 3001 45 ASP No/No

Airport map

Aerial View

Airport accidents

SKYbrary Partners:

Safety knowledge contributed by: